User: anonymous   Login
Location: Asheville, NC
(35.6000°N, 82.5500°W)
Time: 08:20:51
(UTC-04:00)
Language:

STARS - Orbit

View from above orbital plane
View from above orbital plane
View from above satellite
View from above satellite

Ground track
Ground track

The orbit data is extracted from the following two-line orbital elements,

1 33498U 09002G   18198.77945810 +.00000158 +00000-0 +29145-4 0  9995
2 33498 098.3306 031.5166 0011449 157.8709 265.9840 14.78831779509931
Epoch (UTC): 17 July 2018 18:42:25
Eccentricity: 0.0011449
inclination: 98.3306°
perigee height: 625 km
apogee height: 641 km
right ascension of ascending node: 31.5166°
argument of perigee: 157.8709°
revolutions per day: 14.78831779
mean anomaly at epoch: 265.9840°
orbit number at epoch: 50993

The dashed part of the orbit path shows where the satellite is in the earth's shadow,  

DLR